www.pogodaiklimat.ru

Погода и климат >> Архив погоды >> Россия >> Волгоградская область >> Волгоград


АРХИВ ПОГОДЫ в Волгограде

Время (UTC), дата Ветер
(напр.,м/с)
 
Видим.   Явления Облачность Т
(С)
Тd
(С)
f
(%)
Тe
(С)
Тes
(С)
Комфортность P
(гПа)
Po
(гПа)
Тmin
(С)
Tmax
(С)
R
(мм)
R24
(мм)
S
(см)
21 18.09 З 4 10 км 5/0
[Ci fib]
+13.3 +9.1 76 +12 +12 по сезону 1016.7 998.3
00 19.09 З 4 10 км 6/0
[Ac trans]
+13.2 +9.2 77 +12 +12 тепло 1016.1 997.7
03 19.09 З 4 10 км 6/0
[Ac trans]
+12.5 +9.2 80 +11 +11 по сезону 1016.4 997.9 +12.4
06 19.09 СЗ 7 10 км 8/3 1000 м
[Sc Ci fib]
+16.1 +10.8 71 +15 +15 тепло 1017.1 998.9 +11.9
09 19.09 СЗ 9-12
{12}
10 км 8/5 1000 м
[Cu hum Ci fib]
+19.9 +8.4 47 +20 +21 тепло 1016.9 998.9
12 19.09 СЗ 9-12
{14}
10 км 3/0
[Ac trans]
+20.5 +5.5 37 +21 +21 комфорт 1017.1 999.1
15 19.09 СЗ 6
{12}
10 км ясно +17.9 +5.3 43 +17 +17 тепло 1018.0 999.8 +20.9
18 19.09 З 3
{12}
10 км ясно +13.4 +6.8 64 +12 +12 по сезону 1019.0 1000.5
21 19.09 З 4 10 км ясно +12.1 +7.6 74 +10 +10 по сезону 1019.1 1000.6
00 20.09 З 4 10 км ясно +10.9 +7.8 81 +8 +8 по сезону 1019.2 1000.6
03 20.09 З 5 10 км 3/3 1500 м
[Sc]
+11.5 +8.5 82 +9 +9 по сезону 1018.9 1000.3 +10.0
06 20.09 З 7 10 км ясно +18.7 +10.4 58 +19 +20 тепло 1018.7 1000.6
09 20.09 З 11-14
{13}
10 км ясно +24.4 +10.7 42 +26 +26 жарко 1017.4 999.7
12 20.09 З 8-11
{15}
10 км ясно +26.2 +10.4 37 +27 +28 жарко 1016.1 998.5
15 20.09 З 6
{12}
10 км ясно +22.8 +10.3 45 +25 +25 комфорт 1015.6 997.8 +26.6
18 20.09 З 3
{12}
10 км 3/0
[Ac trans]
+17.6 +10.3 62 +18 +18 тепло 1016.5 998.4
21 20.09 З 3 10 км ясно +14.1 +10.5 79 +13 +13 тепло 1016.3 997.9
00 21.09 штиль 0 10 км ясно +13.5 +10.6 83 +13 +13 тепло 1016.0 997.6
03 21.09 З 3 10 км ясно +12.5 +10.8 89 +11 +11 по сезону 1016.4 997.9 +12.3
06 21.09 СЗ 5 10 км ясно +19.5 +13.3 67 +21 +23 комфорт 1017.2 999.2
09 21.09 С 6
{10}
10 км ясно +24.7 +11.9 45 +26 +30 жарко 1017.2 999.5
12 21.09 С 6
{10}
10 км ясно +25.3 +10.4 39 +26 +28 жарко 1017.5 999.8
15 21.09 СВ 3 10 км 4/0
[Ci fib]
+21.4 +10.6 50 +23 +23 комфорт 1018.7 1000.8 +25.8
18 21.09 СВ 4 10 км ясно +17.3 +11.0 66 +17 +17 тепло 1020.1 1001.9
21 21.09 В 4 10 км ясно +15.0 +11.6 80 +14 +14 тепло 1021.5 1003.1
00 22.09 В 4 10 км ясно +13.0 +10.6 85 +11 +11 тепло 1022.4 1003.9
03 22.09 В 3 10 км ясно +11.5 +9.5 88 +10 +10 по сезону 1023.3 1004.6 +11.5
06 22.09 В 5 10 км ясно +19.3 +10.7 57 +20 +22 тепло 1023.4 1005.2 +11.4
09 22.09 В 6 10 км 5/0
[Ci fib]
+22.0 +11.0 50 +24 +27 комфорт 1022.8 1004.8
12 22.09 ЮВ 5 10 км 4/0
[Ac trans]
+23.3 +10.2 43 +25 +27 комфорт 1021.5 1003.6
15 22.09 ЮВ 3 10 км ясно +20.2 +10.8 55 +22 +22 комфорт 1021.1 1003.0 +23.9
18 22.09 ЮВ 4 10 км ясно +15.5 +10.6 73 +15 +15 тепло 1021.3 1002.9
21 22.09 ЮВ 3 10 км ясно +14.0 +10.2 78 +13 +13 тепло 1020.7 1002.3
00 23.09 ЮВ 4 10 км ясно +12.6 +9.7 82 +11 +11 тепло 1019.9 1001.4
03 23.09 ЮВ 4 10 км ясно +11.2 +9.5 89 +9 +9 по сезону 1019.6 1001.0 +11.1
06 23.09 Ю 6 10 км ясно +19.8 +6.2 41 +20 +22 тепло 1018.8 1000.7
09 23.09 ЮВ 8-11
{10}
10 км ясно +21.6 +5.0 34 +22 +24 комфорт 1016.9 999.0
12 23.09 Ю 7-10
{11}
10 км 4/0
[Ci fib]
+23.7 +8.5 38 +24 +25 комфорт 1014.6 996.9
15 23.09 Ю 4
{11}
10 км 4/0
[Ci fib]
+20.7 +10.0 50 +22 +22 комфорт 1013.2 995.3 +24.2
18 23.09 Ю 6
{11}
10 км 9/0
[Ac trans Ci fib]
+20.0 +11.1 57 +21 +21 комфорт 1011.1 993.2
21 23.09 З 7 4000 м слабый ливневой дождь {снег} 9/9 1500 м
[Cb calv]
+16.8 +15.4 91 +16 +16 тепло 1011.1 993.0
00 24.09 З 9-12
{14}
10 км {ливн. осадки, снег} 10/10 180 м
[St]
+12.7 +11.6 93 +9 +9 по сезону 1012.7 994.3
03 24.09 СЗ 8-11
{15}
10 км 9/9 600 м
[Sc]
+10.3 +8.2 87 +6 +6 прохладно 1014.7 996.1 +10.2
06 24.09 СЗ 7
{15}
10 км 6/6 450 м
[Sc]
+11.7 +8.1 79 +9 +9 прохладно 1016.7 998.2 +9.9
09 24.09 СЗ 6 10 км 4/4 600 м
[Sc]
+15.7 +6.4 54 +14 +17 по сезону 1017.7 999.4
12 24.09 З 5
{11}
10 км 3/0
[Ac trans]
+18.0 +5.7 44 +18 +19 по сезону 1016.8 998.7
15 24.09 З 2 10 км ясно +15.6 +7.2 57 +16 +16 по сезону 1016.0 997.7 +18.4
18 24.09 Ю 3 10 км ясно +11.3 +6.4 72 +10 +10 по сезону 1016.1 997.5
21 24.09 ЮВ 4 10 км ясно +10.1 +5.4 73 +8 +8 по сезону 1014.8 996.2
00 25.09 ЮВ 4 10 км ясно +9.8 +6.4 79 +7 +7 по сезону 1013.1 994.5
03 25.09 ЮВ 6 10 км 8/5 1000 м
[Sc Ac trans]
+12.3 +7.1 71 +10 +10 по сезону 1011.4 993.0 +8.9
06 25.09 Ю 7 10 км 8/0
[Ac trans]
+17.3 +9.7 61 +16 +17 тепло 1010.6 992.5
09 25.09 ЮЗ 9-11
{12}
10 км 8/0
[Ac trans]
+24.5 +12.3 47 +26 +27 жарко 1008.7 991.1
12 25.09 З 10-10
{14}
10 км 8/0
[Ci fib]
+17.4 +12.7 74 +16 +16 по сезону 1011.1 993.1
15 25.09 СЗ 8-10
{12}
10 км 8/3 1500 м
[Sc Ac trans]
+12.7 +8.8 77 +10 +10 прохладно 1013.6 995.2 +26.4
18 25.09 СЗ 7
{12}
10 км 5/0
[Ac trans]
+10.5 +7.8 83 +7 +7 прохладно 1015.5 996.9

 

Местоположение метеостанции Волгоград (Волгоградская область, Россия): широта 48.78 долгота 44.37 высота над уровнем моря 134 м.

В архиве по умолчанию представлена погода в Волгограде за последнюю неделю. Архивные данные за месяц целиком и за предыдущие месяцы, начиная с января 2011 года, Вы можете получить, выбрав интересующий диапазон дат из раскрывающегося списка и нажав кнопку "Ввод!".


*Определитесь, кто Вы:
робот инопланетянин человек

Внимание! Время в таблицах - всемирное. Для получения местного времени необходимо прибавить поправку, которая в Волгограде равна 3 ч.

Смотрите также архив погоды в соседних городах и на ближайших метеорологических станциях:

Погода в Волгограде город (Волгоградская область, Россия) (14 км)
Погода в Иловле (Волгоградская область, Россия) (64 км)
Погода в Калаче-на-Дону (Волгоградская область, Россия) (66 км)
Погода в Малых Дербетах (Калмыкия, Россия) (98 км)
Погода в Нижнем Чире (Волгоградская область, Россия) (105 км)
Погода в Ольховке (Волгоградская область, Россия) (122 км)
Погода в Фролове (Волгоградская область, Россия) (124 км)
Погода в Серафимовиче (Волгоградская область, Россия) (148 км)
Погода в Черный Яр (Астраханская область, Россия) (151 км)
Погода в Котельниково (Волгоградская область, Россия) (157 км)

Пояснения к столбцам:

Ветер - указаны скорость ветра в м/с - средняя за 10 мин, порывы в срок и между сроками (в фигурных скобках) и направление, откуда дует ветер: С - северный, СВ - северо-восточный, В - восточный, ЮВ - юго-восточный, Ю - южный, ЮЗ - юго-западный, З - западный, СЗ - северо-западный.
Видимость - горизонтальная дальность видимости в метрах или километрах. При видимости от 1 до 10 км при отсутствии осадков обычно наблюдается дымка, при ухудшении видимости до 1 км и менее - туман. В сухую погоду видимость может ухудшаться дымом, пылью или мглою.
Явления - указаны атмосферные явления, наблюдавшиеся в срок или в последний час перед сроком; фигурными скобками обозначены явления, наблюдавшиеся между сроками (за 1-3 часа до срока); квадратными скобками обозначены град или гололедные отложения с указанием их диаметра в мм.
Облачность - указаны через наклонную черту общая и нижняя облачность в баллах и высота нижней границы облаков в метрах; квадратными скобками обозначены формы облаков: Ci - перистые, Cs - перисто-слоистые, Cc - перисто-кучевые, Ac - высококучевые, As - высокослоистые, Sc - слоисто-кучевые, Ns - слоисто-дождевые, Cu - кучевые, Cb - кучево-дождевые. Подробнее классификацию облаков см. в Атласе облаков (PDF).
T - Температура воздуха - температура, измеренная на высоте 2 м над землей.
Td - Температура точки росы - температура, при понижении до которой содержащийся в воздухе водяной пар достигнет насыщения.
f - Относительная влажность воздуха - влажноcть воздуха, измеренная на высоте 2 м над землей.
Te - Эффективная температура - температура, которую ощущает одетый по сезону человек в тени. Характеристика душности погоды. При расчете учитывается влияние влажности воздуха и скорости ветра на теплоощущения человека.
Tes - Эффективная температура на солнце - температура, которую ощущает человек, с поправкой на солнечный нагрев. Характеристика знойности погоды. Зависит от высоты солнца над горизонтом, облачности и скорости ветра. Ночью, в пасмурную погоду, а также при ветре 12 м/с и более поправка равна нулю.
P - Атмосферное давление - приведенное к уровню моря атмосферное давление.
Po - Атмосферное давление - измеренное на уровне метеостанции атмосферное давление.
Tmin - Минимальная температура - минимум температуры воздуха на высоте 2 м над землей.
Tmax - Максимальная температура - максимум температуры воздуха на высоте 2 м над землей.
R - Количество осадков - Количество выпавших осадков за период времени, мм. При наведении курсора мыши на число - период времени, за который выпало указанное количество осадков.
R24 - Количество осадков - Количество выпавших осадков за 24 часа, мм.
S - Снежный покров - Высота снежного покрова, см. При наведении курсора мыши на число - состояние снежного покрова и степень покрытия местности в баллах.